OE1HTB-13 Weather Reports


time (UTC)temp
F
wind
direction
speed
knots
gust
knots
rain 1hr
in
rain 24hr
in
rain mn
in
humidity
%
barometer
mb
20260506000109 62 287 0.9 2.6 0.00 0.00 0.00 66 1005.4
20260505234609 62 67 0.9 3.5 0.00 0.00 0.00 67 1005.1
20260505233109 62 130 0.9 3.5 0.00 0.00 0.00 66 1005.1
20260505231615 61 42 0.9 4.3 0.00 0.00 0.00 68 1005.0
20260505230114 60 57 0.9 3.5 0.00 0.00 0.00 70 1004.7
20260505224614 59 244 0.9 3.5 0.00 0.00 0.00 70 1004.6
20260505223114 58 151 0.9 2.6 0.00 0.00 0.00 71 1004.4
20260505221614 58 101 0.9 3.5 0.00 0.00 0.00 70 1004.2
20260505220113 58 5 1.7 3.5 0.00 0.00 0.00 68 1004.2
20260505214613 58 308 0.9 2.6 0.00 0.00 0.00 68 1004.2
20260505213113 58 311 0.9 1.7 0.00 0.00 0.00 67 1004.1
20260505211613 58 297 0.9 1.7 0.00 0.00 0.00 66 1003.9
20260505210113 59 294 0.0 1.7 0.00 0.00 0.00 65 1004.0
20260505204613 60 157 0.0 2.6 0.00 0.00 0.00 63 1003.7
20260505203112 61 122 0.9 3.5 0.00 0.00 0.00 61 1003.5
20260505201613 61 75 1.7 4.3 0.00 0.00 0.00 59 1003.3
20260505200112 62 102 1.7 5.2 0.00 0.00 0.00 58 1003.4
20260505194612 62 106 1.7 7.0 0.00 0.00 0.00 57 1003.3
20260505193112 63 136 2.6 7.8 0.00 0.00 0.00 56 1003.2
20260505191613 64 94 2.6 7.0 0.00 0.00 0.00 55 1003.2
20260505190112 64 130 3.5 11.3 0.00 0.00 0.00 53 1003.2
20260505184612 64 64 3.5 9.6 0.00 0.00 0.00 53 1003.1
20260505183111 65 133 4.3 9.6 0.00 0.00 0.00 52 1003.1
20260505181611 66 120 4.3 13.0 0.00 0.00 0.00 50 1003.1
20260505180111 67 153 4.3 12.2 0.00 0.00 0.00 48 1003.1
20260505174611 68 151 5.2 14.8 0.00 0.00 0.00 47 1003.0
20260505173111 69 148 4.3 13.0 0.00 0.00 0.00 46 1002.9
20260505171611 70 166 6.1 16.5 0.00 0.00 0.00 46 1002.8
20260505170111 70 100 5.2 13.9 0.00 0.00 0.00 46 1002.9
20260505164611 71 125 5.2 16.5 0.00 0.00 0.00 44 1003.1
20260505163110 71 122 6.1 15.6 0.00 0.00 0.00 44 1003.4
20260505161610 72 132 6.1 17.4 0.00 0.00 0.00 43 1003.5
20260505160110 73 126 6.1 13.9 0.00 0.00 0.00 43 1003.5
20260505153117 74 163 7.0 23.5 0.00 0.00 0.00 41 1003.5
20260505151615 75 132 6.1 18.2 0.00 0.00 0.00 38 1003.5
20260505150114 78 131 7.0 17.4 0.00 0.00 0.00 35 1003.6
20260505140114 80 125 7.0 13.0 0.00 0.00 0.00 32 1003.8
20260505130113 81 127 7.8 21.7 0.00 0.00 0.00 28 1004.4
20260505124613 81 117 6.1 20.0 0.00 0.00 0.00 29 1004.6
20260505123113 81 114 7.0 18.2 0.00 0.00 0.00 28 1004.9
20260505121615 81 132 7.0 18.2 0.00 0.00 0.00 27 1005.2
20260505120113 81 105 4.3 13.0 0.00 0.00 0.00 30 1005.1
20260505114614 81 202 6.1 15.6 0.00 0.00 0.00 30 1005.3
20260505113112 80 150 5.2 13.0 0.00 0.00 0.00 31 1005.5
20260505111612 79 91 6.1 13.9 0.00 0.00 0.00 36 1005.6
20260505110112 78 90 3.5 9.6 0.00 0.00 0.00 41 1005.9
20260505101612 74 171 5.2 9.6 0.00 0.00 0.00 46 1006.8
20260505100112 72 128 4.3 9.6 0.00 0.00 0.00 48 1007.0
20260505094611 70 34 6.1 9.6 0.00 0.00 0.00 50 1007.1
20260505093112 70 131 3.5 8.7 0.00 0.00 0.00 50 1007.4
20260505091612 68 141 2.6 7.8 0.00 0.00 0.00 52 1007.5
20260505090111 68 89 3.5 9.6 0.00 0.00 0.00 50 1007.7
20260505084611 68 63 3.5 7.8 0.00 0.00 0.00 54 1007.7
20260505083112 66 55 3.5 9.6 0.00 0.00 0.00 53 1007.7
20260505081611 67 153 3.5 8.7 0.00 0.00 0.00 56 1007.8
20260505080110 66 90 3.5 7.8 0.00 0.00 0.00 57 1007.8
20260505074610 66 112 3.5 8.7 0.00 0.00 0.00 56 1007.8
20260505073110 64 125 2.6 6.1 0.00 0.00 0.00 55 1007.9
20260505071610 63 46 1.7 5.2 0.00 0.00 0.00 61 1007.9
20260505070110 60 103 1.7 5.2 0.00 0.00 0.00 66 1008.0
20260505064610 59 108 1.7 4.3 0.00 0.00 0.00 65 1008.0
20260505063110 60 119 1.7 4.3 0.00 0.00 0.00 65 1007.8
20260505061609 59 90 1.7 3.5 0.00 0.00 0.00 65 1007.8
20260505060110 59 103 0.9 3.5 0.00 0.00 0.00 65 1007.8
20260505054615 59 109 0.9 2.6 0.00 0.00 0.00 65 1007.6
20260505053114 59 85 0.9 4.3 0.00 0.00 0.00 64 1007.6
20260505051614 56 114 0.9 1.7 0.00 0.00 0.00 71 1007.6
20260505050114 53 138 0.0 0.0 0.00 0.00 0.00 77 1007.7
20260505041614 52 211 0.0 1.7 0.00 0.00 0.00 76 1007.6
20260505040113 52 281 0.0 0.9 0.00 0.00 0.00 75 1007.5
20260505034615 53 281 0.0 0.9 0.00 0.00 0.00 73 1007.6
20260505033113 53 281 0.0 1.7 0.00 0.00 0.00 73 1007.6
20260505031613 53 281 0.0 1.7 0.00 0.00 0.00 72 1007.6
20260505030113 53 281 0.0 1.7 0.00 0.00 0.00 71 1007.7
20260505024613 54 281 0.9 1.7 0.00 0.00 0.00 71 1007.8
20260505023113 54 281 0.9 1.7 0.00 0.00 0.00 70 1007.8
20260505021613 54 281 0.9 1.7 0.00 0.00 0.00 70 1008.0
20260505020112 54 281 0.9 1.7 0.00 0.00 0.00 70 1008.1
20260505014612 54 261 0.0 1.7 0.00 0.00 0.00 69 1008.1
20260505013112 54 261 0.0 1.7 0.00 0.00 0.00 69 1008.1
20260505011612 55 218 0.9 1.7 0.00 0.00 0.00 68 1008.2
20260505010112 55 192 0.0 1.7 0.00 0.00 0.00 67 1008.3
20260505004611 56 197 0.0 1.7 0.00 0.00 0.00 65 1008.4
20260505003111 56 105 0.9 2.6 0.00 0.00 0.00 65 1008.5
20260505001611 56 162 0.9 3.5 0.00 0.00 0.00 64 1008.6